owner,sensor,date,latitude,longitude,vertical_datum,direction_of_sea_water_velocity,sea_water_speed,upward_sea_water_velocity,qcFlag 
TABS,ioos:station:wmo:42048:1,2008-11-01T00:00:00Z,27.9396,-96.8429,2.0,4.911987145,7.708307207,-99999.0,'11133222,11111222,99999999' 
TABS,ioos:station:wmo:42048:1,2008-11-01T00:30:00Z,27.9396,-96.8429,2.0,34.29519937,5.253303722,-99999.0,'11133222,11111222,99999999' 
TABS,ioos:station:wmo:42048:1,2008-11-01T01:00:00Z,27.9396,-96.8429,2.0,27.00741472,9.271013968,-99999.0,'11133222,11111222,99999999' 
TABS,ioos:station:wmo:42048:1,2008-11-01T01:30:00Z,27.9396,-96.8429,2.0,20.09819572,4.68530682,-99999.0,'11133222,11111222,99999999' 
TABS,ioos:station:wmo:42048:1,2008-11-01T02:00:00Z,27.9396,-96.8429,2.0,0.430996668,1.330037593,-99999.0,'11133222,11111222,99999999' 
TABS,ioos:station:wmo:42048:1,2008-11-01T02:30:00Z,27.9396,-96.8429,2.0,39.09016,7.279464266,-99999.0,'11133222,11111222,99999999' 
TABS,ioos:station:wmo:42048:1,2008-11-01T03:00:00Z,27.9396,-96.8429,2.0,32.05189327,5.238511239,-99999.0,'11133222,11111222,99999999' 
TABS,ioos:station:wmo:42048:1,2008-11-01T03:30:00Z,27.9396,-96.8429,2.0,19.97106671,4.011209294,-99999.0,'11133222,11111222,99999999' 
TABS,ioos:station:wmo:42048:1,2008-11-01T04:00:00Z,27.9396,-96.8429,2.0,1.400802942,4.091222311,-99999.0,'11133222,11111222,99999999' 
TABS,ioos:station:wmo:42048:1,2008-11-01T04:30:00Z,27.9396,-96.8429,2.0,337.074565,6.340859563,-99999.0,'11133222,11111222,99999999' 
TABS,ioos:station:wmo:42048:1,2008-11-01T05:00:00Z,27.9396,-96.8429,2.0,19.03348236,4.844873579,-99999.0,'11133222,11111222,99999999' 
TABS,ioos:station:wmo:42048:1,2008-11-01T05:30:00Z,27.9396,-96.8429,2.0,358.2609985,4.942276803,-99999.0,'11133222,11111222,99999999' 
TABS,ioos:station:wmo:42048:1,2008-11-01T06:00:00Z,27.9396,-96.8429,2.0,24.37850241,8.673315398,-99999.0,'11133222,11111222,99999999' 
TABS,ioos:station:wmo:42048:1,2008-11-01T06:30:00Z,27.9396,-96.8429,2.0,30.07510262,4.090733431,-99999.0,'11133222,11111222,99999999' 
TABS,ioos:station:wmo:42048:1,2008-11-01T07:00:00Z,27.9396,-96.8429,2.0,57.03918919,4.576647244,-99999.0,'11133222,11111222,99999999' 
TABS,ioos:station:wmo:42048:1,2008-11-01T07:30:00Z,27.9396,-96.8429,2.0,3.446110079,4.65842248,-99999.0,'11133222,11111222,99999999' 
TABS,ioos:station:wmo:42048:1,2008-11-01T08:00:00Z,27.9396,-96.8429,2.0,18.66918696,6.96655582,-99999.0,'11133222,11111222,99999999' 
TABS,ioos:station:wmo:42048:1,2008-11-01T08:30:00Z,27.9396,-96.8429,2.0,21.24287731,3.80879246,-99999.0,'11133222,11111222,99999999' 
TABS,ioos:station:wmo:42048:1,2008-11-01T09:00:00Z,27.9396,-96.8429,2.0,55.0285207,4.588518279,-99999.0,'11133222,11111222,99999999' 
TABS,ioos:station:wmo:42048:1,2008-11-01T09:30:00Z,27.9396,-96.8429,2.0,42.02805627,3.13670209,-99999.0,'11133222,11111222,99999999' 
TABS,ioos:station:wmo:42048:1,2008-11-01T10:00:00Z,27.9396,-96.8429,2.0,41.95326887,6.252591463,-99999.0,'11133222,11111222,99999999' 
TABS,ioos:station:wmo:42048:1,2008-11-01T10:30:00Z,27.9396,-96.8429,2.0,46.39728299,4.64,-99999.0,'11133222,11111222,99999999' 
TABS,ioos:station:wmo:42048:1,2008-11-01T11:00:00Z,27.9396,-96.8429,2.0,79.69517763,1.229837388,-99999.0,'11133222,11111222,99999999' 
TABS,ioos:station:wmo:42048:1,2008-11-01T11:30:00Z,27.9396,-96.8429,2.0,56.60649319,4.287889924,-99999.0,'11133222,11111222,99999999' 
TABS,ioos:station:wmo:42048:1,2008-11-01T12:00:00Z,27.9396,-96.8429,2.0,116.1557414,3.130575027,-99999.0,'11133222,11111222,99999999' 
TABS,ioos:station:wmo:42048:1,2008-11-01T12:30:00Z,27.9396,-96.8429,2.0,130.1008138,1.490369082,-99999.0,'11133222,11111222,99999999' 
TABS,ioos:station:wmo:42048:1,2008-11-01T13:00:00Z,27.9396,-96.8429,2.0,82.56860941,1.623637891,-99999.0,'11133222,11111222,99999999' 
TABS,ioos:station:wmo:42048:1,2008-11-01T13:30:00Z,27.9396,-96.8429,2.0,247.8681259,2.256235803,-99999.0,'11133222,11111222,99999999' 
TABS,ioos:station:wmo:42048:1,2008-11-01T14:00:00Z,27.9396,-96.8429,2.0,218.8295236,4.736771052,-99999.0,'11133222,11111222,99999999' 
TABS,ioos:station:wmo:42048:1,2008-11-01T14:30:00Z,27.9396,-96.8429,2.0,191.0268961,5.960041946,-99999.0,'11133222,11111222,99999999' 
TABS,ioos:station:wmo:42048:1,2008-11-01T15:00:00Z,27.9396,-96.8429,2.0,223.9480467,16.18132875,-99999.0,'11111222,11111222,99999999' 
TABS,ioos:station:wmo:42048:1,2008-11-01T15:30:00Z,27.9396,-96.8429,2.0,232.3032082,18.57793315,-99999.0,'11111222,11111222,99999999' 
TABS,ioos:station:wmo:42048:1,2008-11-01T16:00:00Z,27.9396,-96.8429,2.0,234.850698,16.44941944,-99999.0,'11111222,11111222,99999999' 
TABS,ioos:station:wmo:42048:1,2008-11-01T16:30:00Z,27.9396,-96.8429,2.0,229.3429141,14.56580242,-99999.0,'11111222,11111222,99999999' 
TABS,ioos:station:wmo:42048:1,2008-11-01T17:00:00Z,27.9396,-96.8429,2.0,240.1956502,19.23407653,-99999.0,'11111222,11111222,99999999' 
TABS,ioos:station:wmo:42048:1,2008-11-01T17:30:00Z,27.9396,-96.8429,2.0,244.4228977,16.07524805,-99999.0,'11111222,11111222,99999999' 
TABS,ioos:station:wmo:42048:1,2008-11-01T18:00:00Z,27.9396,-96.8429,2.0,239.3713235,15.52603298,-99999.0,'11111222,11111222,99999999' 
TABS,ioos:station:wmo:42048:1,2008-11-01T18:30:00Z,27.9396,-96.8429,2.0,251.5167072,15.10936796,-99999.0,'11111222,11111222,99999999' 
TABS,ioos:station:wmo:42048:1,2008-11-01T19:00:00Z,27.9396,-96.8429,2.0,257.245402,12.68293736,-99999.0,'11111222,11111222,99999999' 
TABS,ioos:station:wmo:42048:1,2008-11-01T19:30:00Z,27.9396,-96.8429,2.0,258.3197902,18.22741342,-99999.0,'11111222,11111222,99999999' 
TABS,ioos:station:wmo:42048:1,2008-11-01T20:00:00Z,27.9396,-96.8429,2.0,252.2696703,19.2755415,-99999.0,'11111222,11111222,99999999' 
TABS,ioos:station:wmo:42048:1,2008-11-01T20:30:00Z,27.9396,-96.8429,2.0,257.2313111,30.36076745,-99999.0,'11111222,11111222,99999999' 
TABS,ioos:station:wmo:42048:1,2008-11-01T21:00:00Z,27.9396,-96.8429,2.0,260.3812411,35.01218217,-99999.0,'11111222,11111222,99999999' 
TABS,ioos:station:wmo:42048:1,2008-11-01T21:30:00Z,27.9396,-96.8429,2.0,258.0209091,33.10077492,-99999.0,'11111222,11111222,99999999' 
TABS,ioos:station:wmo:42048:1,2008-11-01T22:00:00Z,27.9396,-96.8429,2.0,257.995538,27.35824739,-99999.0,'11111222,11111222,99999999' 
TABS,ioos:station:wmo:42048:1,2008-11-01T22:30:00Z,27.9396,-96.8429,2.0,259.2191926,27.58687369,-99999.0,'11111222,11111222,99999999' 
TABS,ioos:station:wmo:42048:1,2008-11-01T23:00:00Z,27.9396,-96.8429,2.0,255.6676594,23.02663892,-99999.0,'11111222,11111222,99999999' 
TABS,ioos:station:wmo:42048:1,2008-11-01T23:30:00Z,27.9396,-96.8429,2.0,260.5911182,17.49534795,-99999.0,'11111222,11111222,99999999' 
TABS,ioos:station:wmo:42048:1,2008-11-02T00:00:00Z,27.9396,-96.8429,2.0,260.2071603,19.40269054,-99999.0,'11111222,11111222,99999999' 
TABS,ioos:station:wmo:42048:1,2008-11-02T00:30:00Z,27.9396,-96.8429,2.0,270.7506782,16.80144041,-99999.0,'11111222,11111222,99999999' 
TABS,ioos:station:wmo:42048:1,2008-11-02T01:00:00Z,27.9396,-96.8429,2.0,250.061634,16.27551842,-99999.0,'11111222,11111222,99999999' 
TABS,ioos:station:wmo:42048:1,2008-11-02T01:30:00Z,27.9396,-96.8429,2.0,265.7794165,13.04537083,-99999.0,'11111222,11111222,99999999' 
TABS,ioos:station:wmo:42048:1,2008-11-02T02:00:00Z,27.9396,-96.8429,2.0,253.2062183,14.57143095,-99999.0,'11111222,11111222,99999999' 
TABS,ioos:station:wmo:42048:1,2008-11-02T02:30:00Z,27.9396,-96.8429,2.0,249.8948834,9.658535086,-99999.0,'11133222,11111222,99999999' 
TABS,ioos:station:wmo:42048:1,2008-11-02T03:00:00Z,27.9396,-96.8429,2.0,258.5159188,10.34713487,-99999.0,'11111222,11111222,99999999' 
TABS,ioos:station:wmo:42048:1,2008-11-02T03:30:00Z,27.9396,-96.8429,2.0,256.1758687,10.46305883,-99999.0,'11111222,11111222,99999999' 
TABS,ioos:station:wmo:42048:1,2008-11-02T04:00:00Z,27.9396,-96.8429,2.0,253.7930893,10.2472045,-99999.0,'11111222,11111222,99999999' 
TABS,ioos:station:wmo:42048:1,2008-11-02T04:30:00Z,27.9396,-96.8429,2.0,236.728355,8.348460936,-99999.0,'11133222,11111222,99999999' 
TABS,ioos:station:wmo:42048:1,2008-11-02T05:00:00Z,27.9396,-96.8429,2.0,235.8340026,11.36065139,-99999.0,'11111222,11111222,99999999' 
TABS,ioos:station:wmo:42048:1,2008-11-02T05:30:00Z,27.9396,-96.8429,2.0,236.0081882,11.07196911,-99999.0,'11111222,11111222,99999999' 
TABS,ioos:station:wmo:42048:1,2008-11-02T06:00:00Z,27.9396,-96.8429,2.0,249.0234747,6.704297129,-99999.0,'11133222,11111222,99999999' 
TABS,ioos:station:wmo:42048:1,2008-11-02T06:30:00Z,27.9396,-96.8429,2.0,232.6847243,5.922178653,-99999.0,'11133222,11111222,99999999' 
TABS,ioos:station:wmo:42048:1,2008-11-02T07:00:00Z,27.9396,-96.8429,2.0,224.5421423,7.969347527,-99999.0,'11133222,11111222,99999999' 
TABS,ioos:station:wmo:42048:1,2008-11-02T07:30:00Z,27.9396,-96.8429,2.0,260.113071,7.105518982,-99999.0,'11133222,11111222,99999999' 
TABS,ioos:station:wmo:42048:1,2008-11-02T08:00:00Z,27.9396,-96.8429,2.0,216.3517916,7.524307277,-99999.0,'11133222,11111222,99999999' 
TABS,ioos:station:wmo:42048:1,2008-11-02T08:30:00Z,27.9396,-96.8429,2.0,228.0700715,3.696403658,-99999.0,'11133222,11111222,99999999' 
TABS,ioos:station:wmo:42048:1,2008-11-02T09:00:00Z,27.9396,-96.8429,2.0,214.0818245,2.837357926,-99999.0,'11133222,11111222,99999999' 
TABS,ioos:station:wmo:42048:1,2008-11-02T09:30:00Z,27.9396,-96.8429,2.0,207.3577473,6.462855406,-99999.0,'11133222,11111222,99999999' 
TABS,ioos:station:wmo:42048:1,2008-11-02T10:00:00Z,27.9396,-96.8429,2.0,199.6464084,5.383400412,-99999.0,'11133222,11111222,99999999' 
TABS,ioos:station:wmo:42048:1,2008-11-02T10:30:00Z,27.9396,-96.8429,2.0,231.2153057,8.620812027,-99999.0,'11133222,11111222,99999999' 
TABS,ioos:station:wmo:42048:1,2008-11-02T11:00:00Z,27.9396,-96.8429,2.0,192.9848219,8.989883203,-99999.0,'11133222,11111222,99999999' 
TABS,ioos:station:wmo:42048:1,2008-11-02T11:30:00Z,27.9396,-96.8429,2.0,194.5592335,9.029977852,-99999.0,'11133222,11111222,99999999' 
TABS,ioos:station:wmo:42048:1,2008-11-02T12:00:00Z,27.9396,-96.8429,2.0,204.6333106,6.501707468,-99999.0,'11133222,11111222,99999999' 
TABS,ioos:station:wmo:42048:1,2008-11-02T12:30:00Z,27.9396,-96.8429,2.0,186.2125722,7.94667226,-99999.0,'11133222,11111222,99999999' 
TABS,ioos:station:wmo:42048:1,2008-11-02T13:00:00Z,27.9396,-96.8429,2.0,196.2040989,8.2060039,-99999.0,'11133222,11111222,99999999' 
TABS,ioos:station:wmo:42048:1,2008-11-02T13:30:00Z,27.9396,-96.8429,2.0,201.2126408,8.678000922,-99999.0,'11133222,11111222,99999999' 
TABS,ioos:station:wmo:42048:1,2008-11-02T14:00:00Z,27.9396,-96.8429,2.0,197.6076318,12.92557542,-99999.0,'11111222,11111222,99999999' 
TABS,ioos:station:wmo:42048:1,2008-11-02T14:30:00Z,27.9396,-96.8429,2.0,215.0470192,10.18715368,-99999.0,'11111222,11111222,99999999' 
TABS,ioos:station:wmo:42048:1,2008-11-02T15:00:00Z,27.9396,-96.8429,2.0,208.3991575,10.61781993,-99999.0,'11111222,11111222,99999999' 
TABS,ioos:station:wmo:42048:1,2008-11-02T15:30:00Z,27.9396,-96.8429,2.0,206.7391645,13.22416727,-99999.0,'11111222,11111222,99999999' 
TABS,ioos:station:wmo:42048:1,2008-11-02T16:00:00Z,27.9396,-96.8429,2.0,196.2254257,14.60160265,-99999.0,'11111222,11111222,99999999' 
TABS,ioos:station:wmo:42048:1,2008-11-02T16:30:00Z,27.9396,-96.8429,2.0,205.3702696,15.66035121,-99999.0,'11111222,11111222,99999999' 
TABS,ioos:station:wmo:42048:1,2008-11-02T17:00:00Z,27.9396,-96.8429,2.0,204.9054037,20.54018987,-99999.0,'11111222,11111222,99999999' 
TABS,ioos:station:wmo:42048:1,2008-11-02T17:30:00Z,27.9396,-96.8429,2.0,201.6810863,20.38196507,-99999.0,'11111222,11111222,99999999' 
TABS,ioos:station:wmo:42048:1,2008-11-02T18:00:00Z,27.9396,-96.8429,2.0,210.7925396,24.14367826,-99999.0,'11111222,11111222,99999999' 
TABS,ioos:station:wmo:42048:1,2008-11-02T18:30:00Z,27.9396,-96.8429,2.0,213.969783,25.538702,-99999.0,'11111222,11111222,99999999' 
TABS,ioos:station:wmo:42048:1,2008-11-02T19:00:00Z,27.9396,-96.8429,2.0,212.4692912,27.21421871,-99999.0,'11111222,11111222,99999999' 
TABS,ioos:station:wmo:42048:1,2008-11-02T19:30:00Z,27.9396,-96.8429,2.0,208.2885469,26.01724428,-99999.0,'11111222,11111222,99999999' 
TABS,ioos:station:wmo:42048:1,2008-11-02T20:00:00Z,27.9396,-96.8429,2.0,219.6243419,31.62654739,-99999.0,'11111222,11111222,99999999' 
TABS,ioos:station:wmo:42048:1,2008-11-02T20:30:00Z,27.9396,-96.8429,2.0,228.3299842,21.05784652,-99999.0,'11111222,11111222,99999999' 
TABS,ioos:station:wmo:42048:1,2008-11-02T21:00:00Z,27.9396,-96.8429,2.0,235.1565231,25.22177829,-99999.0,'11111222,11111222,99999999' 
TABS,ioos:station:wmo:42048:1,2008-11-02T21:30:00Z,27.9396,-96.8429,2.0,244.0156396,23.37258437,-99999.0,'11111222,11111222,99999999' 
TABS,ioos:station:wmo:42048:1,2008-11-02T22:00:00Z,27.9396,-96.8429,2.0,249.1860561,23.69639002,-99999.0,'11111222,11111222,99999999' 
TABS,ioos:station:wmo:42048:1,2008-11-02T22:30:00Z,27.9396,-96.8429,2.0,251.0173552,22.84217371,-99999.0,'11111222,11111222,99999999' 
TABS,ioos:station:wmo:42048:1,2008-11-02T23:00:00Z,27.9396,-96.8429,2.0,260.3147597,27.9381746,-99999.0,'11111222,11111222,99999999' 
TABS,ioos:station:wmo:42048:1,2008-11-02T23:30:00Z,27.9396,-96.8429,2.0,262.2132892,34.17508595,-99999.0,'11111222,11111222,99999999' 
TABS,ioos:station:wmo:42048:1,2008-11-03T00:00:00Z,27.9396,-96.8429,2.0,255.2329536,27.77743689,-99999.0,'11111222,11111222,99999999' 
TABS,ioos:station:wmo:42048:1,2008-11-03T00:30:00Z,27.9396,-96.8429,2.0,257.8568309,28.33393019,-99999.0,'11111222,11111222,99999999' 
TABS,ioos:station:wmo:42048:1,2008-11-03T01:00:00Z,27.9396,-96.8429,2.0,254.6002354,29.26050239,-99999.0,'11111222,11111222,99999999' 
TABS,ioos:station:wmo:42048:1,2008-11-03T01:30:00Z,27.9396,-96.8429,2.0,251.205082,30.23196983,-99999.0,'11111222,11111222,99999999' 
TABS,ioos:station:wmo:42048:1,2008-11-03T02:00:00Z,27.9396,-96.8429,2.0,248.373448,27.32333984,-99999.0,'11111222,11111222,99999999' 
TABS,ioos:station:wmo:42048:1,2008-11-03T02:30:00Z,27.9396,-96.8429,2.0,246.0745943,24.85567943,-99999.0,'11111222,11111222,99999999' 
TABS,ioos:station:wmo:42048:1,2008-11-03T03:00:00Z,27.9396,-96.8429,2.0,247.3914923,22.5530774,-99999.0,'11111222,11111222,99999999' 
TABS,ioos:station:wmo:42048:1,2008-11-03T03:30:00Z,27.9396,-96.8429,2.0,235.6240341,21.09398492,-99999.0,'11111222,11111222,99999999' 
TABS,ioos:station:wmo:42048:1,2008-11-03T04:00:00Z,27.9396,-96.8429,2.0,232.0154082,24.37260963,-99999.0,'11111222,11111222,99999999' 
TABS,ioos:station:wmo:42048:1,2008-11-03T04:30:00Z,27.9396,-96.8429,2.0,226.3758916,23.55344985,-99999.0,'11111222,11111222,99999999' 
TABS,ioos:station:wmo:42048:1,2008-11-03T05:00:00Z,27.9396,-96.8429,2.0,229.0665272,21.53613243,-99999.0,'11111222,11111222,99999999' 
TABS,ioos:station:wmo:42048:1,2008-11-03T05:30:00Z,27.9396,-96.8429,2.0,232.2211241,19.80048989,-99999.0,'11111222,11111222,99999999' 
TABS,ioos:station:wmo:42048:1,2008-11-03T06:00:00Z,27.9396,-96.8429,2.0,223.0668871,20.54607018,-99999.0,'11111222,11111222,99999999' 
TABS,ioos:station:wmo:42048:1,2008-11-03T06:30:00Z,27.9396,-96.8429,2.0,226.9477648,21.84100959,-99999.0,'11111222,11111222,99999999' 
TABS,ioos:station:wmo:42048:1,2008-11-03T07:00:00Z,27.9396,-96.8429,2.0,210.6667739,24.50747641,-99999.0,'11111222,11111222,99999999' 
TABS,ioos:station:wmo:42048:1,2008-11-03T07:30:00Z,27.9396,-96.8429,2.0,223.8772471,18.40952199,-99999.0,'11111222,11111222,99999999' 
TABS,ioos:station:wmo:42048:1,2008-11-03T08:00:00Z,27.9396,-96.8429,2.0,215.108906,20.82983437,-99999.0,'11111222,11111222,99999999' 
TABS,ioos:station:wmo:42048:1,2008-11-03T08:30:00Z,27.9396,-96.8429,2.0,213.4829357,19.97488423,-99999.0,'11111222,11111222,99999999' 
TABS,ioos:station:wmo:42048:1,2008-11-03T09:00:00Z,27.9396,-96.8429,2.0,219.0028365,17.46210182,-99999.0,'11111222,11111222,99999999' 
TABS,ioos:station:wmo:42048:1,2008-11-03T09:30:00Z,27.9396,-96.8429,2.0,213.7854836,19.92485885,-99999.0,'11111222,11111222,99999999' 
TABS,ioos:station:wmo:42048:1,2008-11-03T10:00:00Z,27.9396,-96.8429,2.0,208.6479804,21.77580538,-99999.0,'11111222,11111222,99999999' 
TABS,ioos:station:wmo:42048:1,2008-11-03T10:30:00Z,27.9396,-96.8429,2.0,209.2815767,21.7948549,-99999.0,'11111222,11111222,99999999' 
TABS,ioos:station:wmo:42048:1,2008-11-03T11:00:00Z,27.9396,-96.8429,2.0,216.0822104,21.39402019,-99999.0,'11111222,11111222,99999999' 
TABS,ioos:station:wmo:42048:1,2008-11-03T11:30:00Z,27.9396,-96.8429,2.0,209.8869768,23.46000213,-99999.0,'11111222,11111222,99999999' 
TABS,ioos:station:wmo:42048:1,2008-11-03T12:00:00Z,27.9396,-96.8429,2.0,226.5975717,23.32945349,-99999.0,'11111222,11111222,99999999' 
TABS,ioos:station:wmo:42048:1,2008-11-03T12:30:00Z,27.9396,-96.8429,2.0,225.3824262,24.34622969,-99999.0,'11111222,11111222,99999999' 
TABS,ioos:station:wmo:42048:1,2008-11-03T13:00:00Z,27.9396,-96.8429,2.0,221.3300828,22.75893231,-99999.0,'11111222,11111222,99999999' 
TABS,ioos:station:wmo:42048:1,2008-11-03T13:30:00Z,27.9396,-96.8429,2.0,214.0969849,22.24403965,-99999.0,'11111222,11111222,99999999' 
TABS,ioos:station:wmo:42048:1,2008-11-03T14:00:00Z,27.9396,-96.8429,2.0,224.571418,21.75828348,-99999.0,'11111222,11111222,99999999' 
TABS,ioos:station:wmo:42048:1,2008-11-03T14:30:00Z,27.9396,-96.8429,2.0,222.8485079,23.92414053,-99999.0,'11111222,11111222,99999999' 
TABS,ioos:station:wmo:42048:1,2008-11-03T15:00:00Z,27.9396,-96.8429,2.0,223.2210836,25.74401872,-99999.0,'11111222,11111222,99999999' 
TABS,ioos:station:wmo:42048:1,2008-11-03T15:30:00Z,27.9396,-96.8429,2.0,218.6129175,26.88844547,-99999.0,'11111222,11111222,99999999' 
TABS,ioos:station:wmo:42048:1,2008-11-03T16:00:00Z,27.9396,-96.8429,2.0,219.3118357,24.82855211,-99999.0,'11111222,11111222,99999999' 
TABS,ioos:station:wmo:42048:1,2008-11-03T16:30:00Z,27.9396,-96.8429,2.0,214.2055696,30.8092973,-99999.0,'11111222,11111222,99999999' 
TABS,ioos:station:wmo:42048:1,2008-11-03T17:00:00Z,27.9396,-96.8429,2.0,223.8210407,29.56331849,-99999.0,'11111222,11111222,99999999' 
TABS,ioos:station:wmo:42048:1,2008-11-03T17:30:00Z,27.9396,-96.8429,2.0,219.4752778,33.34647807,-99999.0,'11111222,11111222,99999999' 
TABS,ioos:station:wmo:42048:1,2008-11-03T18:00:00Z,27.9396,-96.8429,2.0,222.8092596,30.7108743,-99999.0,'11111222,11111222,99999999' 
TABS,ioos:station:wmo:42048:1,2008-11-03T18:30:00Z,27.9396,-96.8429,2.0,218.5971679,31.57835335,-99999.0,'11111222,11111222,99999999' 
TABS,ioos:station:wmo:42048:1,2008-11-03T19:00:00Z,27.9396,-96.8429,2.0,212.1022493,28.13132418,-99999.0,'11111222,11111222,99999999' 
TABS,ioos:station:wmo:42048:1,2008-11-03T19:30:00Z,27.9396,-96.8429,2.0,219.2143589,32.89954559,-99999.0,'11111222,11111222,99999999' 
TABS,ioos:station:wmo:42048:1,2008-11-03T20:00:00Z,27.9396,-96.8429,2.0,219.646637,31.90947351,-99999.0,'11111222,11111222,99999999' 
TABS,ioos:station:wmo:42048:1,2008-11-03T20:30:00Z,27.9396,-96.8429,2.0,221.4296717,32.02336959,-99999.0,'11111222,11111222,99999999' 
TABS,ioos:station:wmo:42048:1,2008-11-03T21:00:00Z,27.9396,-96.8429,2.0,224.1875016,36.91468272,-99999.0,'11111222,11111222,99999999' 
TABS,ioos:station:wmo:42048:1,2008-11-03T21:30:00Z,27.9396,-96.8429,2.0,229.5518043,39.29058539,-99999.0,'11111222,11111222,99999999' 
TABS,ioos:station:wmo:42048:1,2008-11-03T22:00:00Z,27.9396,-96.8429,2.0,231.0658775,41.15069501,-99999.0,'11111222,11111222,99999999' 
TABS,ioos:station:wmo:42048:1,2008-11-03T22:30:00Z,27.9396,-96.8429,2.0,229.8708907,39.72023288,-99999.0,'11111222,11111222,99999999' 
TABS,ioos:station:wmo:42048:1,2008-11-03T23:00:00Z,27.9396,-96.8429,2.0,226.9499291,40.72465592,-99999.0,'11111222,11111222,99999999' 
TABS,ioos:station:wmo:42048:1,2008-11-03T23:30:00Z,27.9396,-96.8429,2.0,228.2307703,39.01653624,-99999.0,'11111222,11111222,99999999' 
TABS,ioos:station:wmo:42048:1,2008-11-04T00:00:00Z,27.9396,-96.8429,2.0,230.8571436,35.40584839,-99999.0,'11111222,11111222,99999999' 
TABS,ioos:station:wmo:42048:1,2008-11-04T00:30:00Z,27.9396,-96.8429,2.0,225.7881067,33.91605225,-99999.0,'11111222,11111222,99999999' 
TABS,ioos:station:wmo:42048:1,2008-11-04T01:00:00Z,27.9396,-96.8429,2.0,219.5766424,31.12473293,-99999.0,'11111222,11111222,99999999' 
TABS,ioos:station:wmo:42048:1,2008-11-04T06:00:00Z,27.9396,-96.8429,2.0,230.4174154,28.90838633,-99999.0,'11111222,11111222,99999999' 
TABS,ioos:station:wmo:42048:1,2008-11-04T06:30:00Z,27.9396,-96.8429,2.0,239.6190581,23.2529826,-99999.0,'11111222,11111222,99999999' 
TABS,ioos:station:wmo:42048:1,2008-11-04T07:00:00Z,27.9396,-96.8429,2.0,235.8668437,30.867214,-99999.0,'11111222,11111222,99999999' 
TABS,ioos:station:wmo:42048:1,2008-11-04T07:30:00Z,27.9396,-96.8429,2.0,223.7776803,27.51978379,-99999.0,'11111222,11111222,99999999' 
TABS,ioos:station:wmo:42048:1,2008-11-04T08:00:00Z,27.9396,-96.8429,2.0,226.9541785,30.06245665,-99999.0,'11111222,11111222,99999999' 
TABS,ioos:station:wmo:42048:1,2008-11-04T08:30:00Z,27.9396,-96.8429,2.0,224.1935823,27.64353993,-99999.0,'11111222,11111222,99999999' 
TABS,ioos:station:wmo:42048:1,2008-11-04T09:00:00Z,27.9396,-96.8429,2.0,229.4878426,22.22889111,-99999.0,'11111222,11111222,99999999' 
TABS,ioos:station:wmo:42048:1,2008-11-04T09:30:00Z,27.9396,-96.8429,2.0,225.6011508,26.2704644,-99999.0,'11111222,11111222,99999999' 
TABS,ioos:station:wmo:42048:1,2008-11-04T10:00:00Z,27.9396,-96.8429,2.0,227.742383,25.86023395,-99999.0,'11111222,11111222,99999999' 
TABS,ioos:station:wmo:42048:1,2008-11-04T10:30:00Z,27.9396,-96.8429,2.0,224.4019869,23.72472339,-99999.0,'11111222,11111222,99999999' 
TABS,ioos:station:wmo:42048:1,2008-11-04T11:00:00Z,27.9396,-96.8429,2.0,228.4139537,20.89674137,-99999.0,'11111222,11111222,99999999' 
TABS,ioos:station:wmo:42048:1,2008-11-04T11:30:00Z,27.9396,-96.8429,2.0,226.4552176,25.0538061,-99999.0,'11111222,11111222,99999999' 
TABS,ioos:station:wmo:42048:1,2008-11-04T12:00:00Z,27.9396,-96.8429,2.0,231.2834917,22.22353707,-99999.0,'11111222,11111222,99999999' 
TABS,ioos:station:wmo:42048:1,2008-11-04T12:30:00Z,27.9396,-96.8429,2.0,221.7674131,20.56709994,-99999.0,'11111222,11111222,99999999' 
TABS,ioos:station:wmo:42048:1,2008-11-04T13:00:00Z,27.9396,-96.8429,2.0,226.4880196,22.32382136,-99999.0,'11111222,11111222,99999999' 
TABS,ioos:station:wmo:42048:1,2008-11-04T13:30:00Z,27.9396,-96.8429,2.0,233.8457872,20.64561212,-99999.0,'11111222,11111222,99999999' 
TABS,ioos:station:wmo:42048:1,2008-11-04T14:00:00Z,27.9396,-96.8429,2.0,229.6410143,22.28329643,-99999.0,'11111222,11111222,99999999' 
TABS,ioos:station:wmo:42048:1,2008-11-04T14:30:00Z,27.9396,-96.8429,2.0,229.8463539,25.52590253,-99999.0,'11111222,11111222,99999999' 
TABS,ioos:station:wmo:42048:1,2008-11-04T15:00:00Z,27.9396,-96.8429,2.0,224.5223688,24.61524121,-99999.0,'11111222,11111222,99999999' 
TABS,ioos:station:wmo:42048:1,2008-11-04T15:30:00Z,27.9396,-96.8429,2.0,222.8801307,19.50120509,-99999.0,'11111222,11111222,99999999' 
TABS,ioos:station:wmo:42048:1,2008-11-04T16:00:00Z,27.9396,-96.8429,2.0,209.8604502,21.47045645,-99999.0,'11111222,11111222,99999999' 
TABS,ioos:station:wmo:42048:1,2008-11-04T16:30:00Z,27.9396,-96.8429,2.0,208.006757,20.08177781,-99999.0,'11111222,11111222,99999999' 
TABS,ioos:station:wmo:42048:1,2008-11-04T17:00:00Z,27.9396,-96.8429,2.0,219.1939198,21.59977083,-99999.0,'11111222,11111222,99999999' 
TABS,ioos:station:wmo:42048:1,2008-11-04T17:30:00Z,27.9396,-96.8429,2.0,211.5007313,19.38705238,-99999.0,'11111222,11111222,99999999' 
TABS,ioos:station:wmo:42048:1,2008-11-04T18:00:00Z,27.9396,-96.8429,2.0,197.0785723,28.19327757,-99999.0,'11111222,11111222,99999999' 
TABS,ioos:station:wmo:42048:1,2008-11-04T18:30:00Z,27.9396,-96.8429,2.0,205.4683451,23.37118953,-99999.0,'11111222,11111222,99999999' 
TABS,ioos:station:wmo:42048:1,2008-11-04T19:00:00Z,27.9396,-96.8429,2.0,218.706457,20.96477283,-99999.0,'11111222,11111222,99999999' 
TABS,ioos:station:wmo:42048:1,2008-11-04T19:30:00Z,27.9396,-96.8429,2.0,227.8188534,21.99642926,-99999.0,'11111222,11111222,99999999' 
TABS,ioos:station:wmo:42048:1,2008-11-04T20:00:00Z,27.9396,-96.8429,2.0,237.273575,22.58504151,-99999.0,'11111222,11111222,99999999' 
TABS,ioos:station:wmo:42048:1,2008-11-04T20:30:00Z,27.9396,-96.8429,2.0,225.7056947,22.95442877,-99999.0,'11111222,11111222,99999999' 